sat.trackr.live / text

‹ back to catalog

STARLINK-31547

NORAD 59364 · 2024-060S

PAYLOAD ACTIVE UNKNOWN

§ Identity

Operator
Country
US
Launch date
2024-03-31
Launch site
AFETR
Launch vehicle
Mass (kg)
RCS (m²)

Purposes: comms

External: N2YO · Heavens-Above · Gunter

§ Orbital elements

Epoch: 2026-09-20T22:19:21.389088Z

Period
94.27 min
Inclination
43.0008°
Eccentricity
0.0001003
Mean motion
15.27578570 rev/d
Perigee alt
482.4 km
Apogee alt
483.7 km
Semi-major
6,861.2 km
B*
-1.6964e-5
RAAN
225.8764°
Arg perigee
270.4059°
Mean anomaly
89.6678°
Rev number
14,005

§ Raw data

STARLINK-315471 59364U 24060S   26263.93010867 -.00000729  00000+0 -16964-4 0  99912 59364  43.0008 225.8764 0001003 270.4059  89.6678 15.27578570140050

JSON: /api/v1/satellites/59364 · /tle

For live sub-satellite position, see the globe view (requires WebGL).

§ Visibility from observer

Set your observer location to see the next 7 days of passes ≥ 10°. The values pass through the URL so the page stays shareable.

No JS? Fill the form by hand. The geolocation button needs JavaScript.